Погода в Китве-Нкана

Замбия     12°49′00″S   28°12′48″E
темп.,
°C
ветер,
м/с
пор.,
м/с
влажн.,
%
обл.,
%
осадки,
мм/ч
давл.,
гПа
погр.,
м
3 августа, вт
вт323:00+16вюв28481 0.0 1020254
02:00+13вюв12590 0.0 102060
05:00+12юв12650 0.0 102153
08:00+17вюв310490 0.0 1022458
11:00+24в23275 0.0 10212410
14:00+27всв23214 0.0 10172724
17:00+25всв23233 0.0 10162834
20:00+19всв11335 0.0 101922
4 августа, ср
ср423:00+16вюв39382 0.0 1021259
02:00+14юв39405 0.0 1021266
05:00+12юв24395 0.0 102285
08:00+15вюв36290 0.0 1023367
11:00+24вюв34180 0.0 10211376
14:00+27ююв22170 0.0 10172633
17:00+26ю22180 0.0 10162737
20:00+19ююв12270 0.0 101928
5 августа, чт
чт523:00+15юв28350 0.0 1022207
02:00+13юв24410 0.0 102171
05:00+12в22440 0.0 102242
08:00+16в37340 0.0 1023294
11:00+25вюв23200 0.0 10201397
14:00+28ююз23160 0.0 10162584
17:00+27ю22160 0.0 1015840
20:00+21ююв22220 0.0 101816
6 августа, пт
пт623:00+17юв310300 0.0 1020258
02:00+14вюв28380 0.0 1020166
05:00+13юв25460 0.0 1020111
08:00+17в39390 0.0 1021368
11:00+27в33180 0.0 10181760
14:00+30ю22120 0.0 10132805
17:00+28ю23130 0.0 1013802
20:00+21ю12200 0.0 101632
7 августа, сб
сб723:00+17юв23330 0.0 101971
02:00+15ююв24410 0.0 101889
05:00+14вюв23490 0.0 101855
08:00+18вюв38373 0.0 1019335
11:00+27вюв34200 0.0 10171747
14:00+30юв34140 0.0 10132880
17:00+29юв24150 0.0 10111164
20:00+22юв412230 0.0 1015417